| time (UTC) | temp C | wind direction | speed KPH | gust KPH | rain 1hr cm | rain 24hr cm | rain mn cm | humidity % | barometer mb |
| 20260503203644 | 15 | 232 | 6.4 | 9.7 | 0.00 | 0.00 | 0.00 | 38 | 1013.2 |
| 20260503203141 | 15 | 222 | 6.4 | 9.7 | 0.00 | 0.00 | 0.00 | 37 | 1013.4 |
| 20260503202638 | 16 | 330 | 1.6 | 1.6 | 0.00 | 0.00 | 0.00 | 35 | 1013.2 |
| 20260503202137 | 15 | 159 | 3.2 | 6.4 | 0.00 | 0.00 | 0.00 | 39 | 1013.7 |
| 20260503201634 | 15 | 126 | 9.7 | 17.7 | 0.00 | 0.00 | 0.00 | 39 | 1013.6 |
| 20260503201131 | 14 | 219 | 8.0 | 9.7 | 0.00 | 0.00 | 0.00 | 40 | 1013.6 |
| 20260503200627 | 15 | 226 | 11.3 | 14.5 | 0.00 | 0.00 | 0.00 | 37 | 1013.8 |
| 20260503200124 | 14 | 206 | 12.9 | 14.5 | 0.00 | 0.00 | 0.00 | 37 | 1013.9 |
| 20260503195621 | 14 | 256 | 8.0 | 9.7 | 0.00 | 0.00 | 0.00 | 37 | 1013.7 |
| 20260503195118 | 14 | 225 | 14.5 | 22.5 | 0.00 | 0.00 | 0.00 | 37 | 1013.9 |
| 20260503194615 | 14 | 180 | 0.0 | 1.6 | 0.00 | 0.00 | 0.00 | 39 | 1014.0 |
| 20260503194110 | 15 | 252 | 1.6 | 3.2 | 0.00 | 0.00 | 0.00 | 41 | 1014.2 |
| 20260503193607 | 13 | 203 | 9.7 | 12.9 | 0.00 | 0.00 | 0.00 | 38 | 1014.4 |
| 20260503193102 | 13 | 247 | 8.0 | 9.7 | 0.00 | 0.00 | 0.00 | 40 | 1014.4 |
| 20260503192558 | 13 | 179 | 12.9 | 14.5 | 0.00 | 0.00 | 0.00 | 38 | 1014.3 |
| 20260503192054 | 13 | 134 | 3.2 | 4.8 | 0.00 | 0.00 | 0.00 | 41 | 1014.3 |
| 20260503191551 | 14 | 234 | 6.4 | 12.9 | 0.00 | 0.00 | 0.00 | 38 | 1014.4 |
| 20260503191048 | 15 | 289 | 3.2 | 3.2 | 0.00 | 0.00 | 0.00 | 38 | 1014.3 |
| 20260503190545 | 14 | 253 | 3.2 | 4.8 | 0.00 | 0.00 | 0.00 | 42 | 1014.7 |
| 20260503190042 | 13 | 295 | 1.6 | 3.2 | 0.00 | 0.00 | 0.00 | 40 | 1014.7 |
| 20260503185539 | 13 | 269 | 1.6 | 1.6 | 0.00 | 0.00 | 0.00 | 40 | 1014.8 |
| 20260503185038 | 13 | 287 | 3.2 | 6.4 | 0.00 | 0.00 | 0.00 | 40 | 1014.7 |
| 20260503184535 | 13 | 211 | 4.8 | 4.8 | 0.00 | 0.00 | 0.00 | 39 | 1014.8 |
| 20260503184031 | 14 | 226 | 11.3 | 17.7 | 0.00 | 0.00 | 0.00 | 40 | 1014.8 |
| 20260503183528 | 14 | 192 | 14.5 | 17.7 | 0.00 | 0.00 | 0.00 | 41 | 1014.7 |
| 20260503183025 | 13 | 113 | 6.4 | 9.7 | 0.00 | 0.00 | 0.00 | 39 | 1015.0 |
| 20260503182524 | 12 | 192 | 6.4 | 9.7 | 0.00 | 0.00 | 0.00 | 40 | 1015.0 |
| 20260503182021 | 12 | 211 | 20.9 | 35.4 | 0.00 | 0.00 | 0.00 | 39 | 1015.1 |
| 20260503181518 | 12 | 348 | 3.2 | 4.8 | 0.00 | 0.00 | 0.00 | 40 | 1015.0 |
| 20260503181014 | 13 | 196 | 4.8 | 4.8 | 0.00 | 0.00 | 0.00 | 39 | 1015.3 |
| 20260503180512 | 13 | 150 | 8.0 | 9.7 | 0.00 | 0.00 | 0.00 | 43 | 1015.2 |
| 20260503180009 | 13 | 340 | 6.4 | 11.3 | 0.00 | 0.00 | 0.00 | 38 | 1015.5 |
| 20260503175506 | 13 | 186 | 8.0 | 12.9 | 0.00 | 0.00 | 0.00 | 39 | 1015.4 |
| 20260503175003 | 13 | 282 | 3.2 | 4.8 | 0.00 | 0.00 | 0.00 | 37 | 1015.2 |
| 20260503174501 | 14 | 289 | 4.8 | 6.4 | 0.00 | 0.00 | 0.00 | 37 | 1015.2 |
| 20260503173956 | 13 | 264 | 3.2 | 3.2 | 0.00 | 0.00 | 0.00 | 42 | 1015.4 |
| 20260503173452 | 13 | 172 | 6.4 | 6.4 | 0.00 | 0.00 | 0.00 | 39 | 1015.5 |
| 20260503172948 | 13 | 254 | 14.5 | 16.1 | 0.00 | 0.00 | 0.00 | 40 | 1015.4 |
| 20260503172446 | 13 | 35 | 8.0 | 14.5 | 0.00 | 0.00 | 0.00 | 43 | 1015.4 |
| 20260503171942 | 12 | 192 | 6.4 | 6.4 | 0.00 | 0.00 | 0.00 | 44 | 1015.4 |
| 20260503171439 | 13 | 19 | 6.4 | 9.7 | 0.00 | 0.00 | 0.00 | 39 | 1015.6 |
| 20260503170937 | 13 | 210 | 4.8 | 9.7 | 0.00 | 0.00 | 0.00 | 37 | 1015.8 |
| 20260503170433 | 12 | 80 | 4.8 | 6.4 | 0.00 | 0.00 | 0.00 | 40 | 1015.6 |
| 20260503150825 | 11 | 176 | 6.4 | 11.3 | 0.00 | 0.00 | 0.00 | 44 | 1016.6 |
| 20260503150321 | 10 | 134 | 3.2 | 3.2 | 0.00 | 0.00 | 0.00 | 45 | 1016.7 |
| 20260503140245 | 8 | 276 | 3.2 | 4.8 | 0.00 | 0.00 | 0.00 | 49 | 1016.8 |
| 20260503131215 | 7 | 179 | 4.8 | 4.8 | 0.00 | 0.00 | 0.00 | 59 | 1017.0 |
| 20260503130713 | 7 | 356 | 0.0 | 0.0 | 0.00 | 0.00 | 0.00 | 61 | 1017.0 |
| 20260503130210 | 7 | 282 | 0.0 | 1.6 | 0.00 | 0.00 | 0.00 | 64 | 1017.3 |
| 20260503120135 | 3 | 257 | 1.6 | 1.6 | 0.00 | 0.00 | 0.00 | 79 | 1016.8 |
| 20260503110603 | 0 | 187 | 0.0 | 1.6 | 0.00 | 0.00 | 0.00 | 89 | 1016.6 |
| 20260503090450 | -1 | 237 | 0.0 | 0.0 | 0.00 | 0.00 | 0.00 | 93 | 1016.1 |
| 20260503081416 | -1 | 224 | 0.0 | 0.0 | 0.00 | 0.00 | 0.00 | 91 | 1016.2 |
| 20260503080913 | -1 | 225 | 0.0 | 0.0 | 0.00 | 0.00 | 0.00 | 90 | 1016.2 |
| 20260503080410 | -1 | 202 | 0.0 | 1.6 | 0.00 | 0.00 | 0.00 | 90 | 1016.2 |
| 20260503072846 | 0 | 262 | 0.0 | 0.0 | 0.00 | 0.00 | 0.00 | 88 | 1016.2 |
| 20260503072343 | 0 | 205 | 1.6 | 1.6 | 0.00 | 0.00 | 0.00 | 87 | 1016.1 |
| 20260503071840 | 0 | 273 | 0.0 | 0.0 | 0.00 | 0.00 | 0.00 | 87 | 1016.2 |
| 20260503071337 | 0 | 221 | 3.2 | 3.2 | 0.00 | 0.00 | 0.00 | 88 | 1016.1 |
| 20260503070833 | 0 | 271 | 0.0 | 1.6 | 0.00 | 0.00 | 0.00 | 87 | 1016.2 |
| 20260503070332 | 0 | 267 | 0.0 | 1.6 | 0.00 | 0.00 | 0.00 | 87 | 1016.1 |
| 20260503060302 | 0 | 269 | 0.0 | 0.0 | 0.00 | 0.00 | 0.00 | 83 | 1016.6 |
| 20260503054749 | 0 | 289 | 0.0 | 0.0 | 0.00 | 0.00 | 0.00 | 82 | 1016.5 |
| 20260503054246 | 0 | 243 | 0.0 | 1.6 | 0.00 | 0.00 | 0.00 | 83 | 1016.4 |
| 20260503053744 | 0 | 248 | 0.0 | 0.0 | 0.00 | 0.00 | 0.00 | 83 | 1016.5 |
| 20260503053243 | 0 | 234 | 1.6 | 1.6 | 0.00 | 0.00 | 0.00 | 84 | 1016.4 |
| 20260503052738 | 0 | 243 | 1.6 | 1.6 | 0.00 | 0.00 | 0.00 | 83 | 1016.5 |
| 20260503052235 | 0 | 190 | 0.0 | 0.0 | 0.00 | 0.00 | 0.00 | 83 | 1016.6 |
| 20260503051730 | 0 | 255 | 0.0 | 0.0 | 0.00 | 0.00 | 0.00 | 83 | 1016.6 |
| 20260503051228 | 0 | 272 | 0.0 | 0.0 | 0.00 | 0.00 | 0.00 | 83 | 1016.6 |
| 20260503050724 | 0 | 272 | 0.0 | 0.0 | 0.00 | 0.00 | 0.00 | 83 | 1016.7 |
| 20260503050221 | 0 | 265 | 0.0 | 0.0 | 0.00 | 0.00 | 0.00 | 82 | 1016.7 |
| 20260503045719 | 0 | 266 | 0.0 | 0.0 | 0.00 | 0.00 | 0.00 | 83 | 1016.8 |
| 20260503045216 | 0 | 268 | 0.0 | 0.0 | 0.00 | 0.00 | 0.00 | 83 | 1016.6 |
| 20260503044712 | 0 | 276 | 0.0 | 0.0 | 0.00 | 0.00 | 0.00 | 83 | 1016.5 |
| 20260503044210 | 0 | 279 | 0.0 | 1.6 | 0.00 | 0.00 | 0.00 | 82 | 1016.5 |
| 20260503043706 | 0 | 279 | 0.0 | 0.0 | 0.00 | 0.00 | 0.00 | 82 | 1016.8 |
| 20260503043204 | 0 | 283 | 0.0 | 0.0 | 0.00 | 0.00 | 0.00 | 81 | 1016.7 |
| 20260503042659 | 0 | 276 | 0.0 | 0.0 | 0.00 | 0.00 | 0.00 | 82 | 1016.8 |
| 20260503042156 | 1 | 277 | 0.0 | 0.0 | 0.00 | 0.00 | 0.00 | 81 | 1016.6 |
| 20260503041652 | 1 | 277 | 0.0 | 0.0 | 0.00 | 0.00 | 0.00 | 79 | 1016.6 |
| 20260503041150 | 1 | 276 | 0.0 | 0.0 | 0.00 | 0.00 | 0.00 | 79 | 1016.7 |
| 20260503040648 | 1 | 276 | 0.0 | 0.0 | 0.00 | 0.00 | 0.00 | 79 | 1016.8 |
| 20260503040145 | 1 | 277 | 0.0 | 0.0 | 0.00 | 0.00 | 0.00 | 78 | 1016.8 |
| 20260503035641 | 1 | 248 | 0.0 | 1.6 | 0.00 | 0.13 | 0.13 | 79 | 1016.7 |
| 20260503035139 | 1 | 260 | 0.0 | 0.0 | 0.00 | 0.13 | 0.13 | 78 | 1016.7 |
| 20260503034637 | 1 | 204 | 1.6 | 1.6 | 0.00 | 0.13 | 0.13 | 77 | 1016.7 |
| 20260503034134 | 1 | 321 | 0.0 | 1.6 | 0.00 | 0.13 | 0.13 | 77 | 1016.6 |
| 20260503033630 | 1 | 267 | 0.0 | 0.0 | 0.00 | 0.13 | 0.13 | 78 | 1016.8 |
| 20260503033128 | 1 | 257 | 0.0 | 0.0 | 0.00 | 0.13 | 0.13 | 77 | 1016.8 |
| 20260503032626 | 2 | 257 | 0.0 | 0.0 | 0.00 | 0.13 | 0.13 | 77 | 1016.7 |
| 20260503032125 | 1 | 261 | 0.0 | 0.0 | 0.00 | 0.13 | 0.13 | 76 | 1016.9 |
| 20260503031622 | 1 | 254 | 0.0 | 0.0 | 0.00 | 0.13 | 0.13 | 75 | 1016.9 |
| 20260503031119 | 1 | 250 | 0.0 | 0.0 | 0.00 | 0.13 | 0.13 | 78 | 1016.9 |
| 20260503030615 | 2 | 244 | 0.0 | 0.0 | 0.00 | 0.13 | 0.13 | 76 | 1016.9 |
| 20260503030112 | 2 | 248 | 0.0 | 0.0 | 0.00 | 0.13 | 0.13 | 76 | 1016.9 |
| 20260503025609 | 2 | 227 | 0.0 | 0.0 | 0.00 | 0.13 | 0.13 | 75 | 1017.0 |
| 20260503025107 | 2 | 266 | 0.0 | 1.6 | 0.00 | 0.13 | 0.13 | 76 | 1017.0 |
| 20260503024603 | 2 | 264 | 0.0 | 1.6 | 0.00 | 0.13 | 0.13 | 77 | 1017.1 |
| 20260503024100 | 2 | 239 | 0.0 | 1.6 | 0.00 | 0.13 | 0.13 | 77 | 1017.0 |
| 20260503023557 | 2 | 269 | 0.0 | 0.0 | 0.00 | 0.13 | 0.13 | 76 | 1017.1 |
| 20260503023054 | 2 | 268 | 0.0 | 0.0 | 0.00 | 0.13 | 0.13 | 74 | 1016.9 |
| 20260503022550 | 2 | 271 | 0.0 | 0.0 | 0.00 | 0.13 | 0.13 | 76 | 1017.1 |
| 20260503022045 | 2 | 268 | 0.0 | 0.0 | 0.00 | 0.13 | 0.13 | 77 | 1017.1 |
| 20260503021542 | 2 | 124 | 0.0 | 0.0 | 0.00 | 0.13 | 0.13 | 77 | 1017.2 |
| 20260503021039 | 2 | 250 | 0.0 | 1.6 | 0.00 | 0.13 | 0.13 | 77 | 1017.2 |
| 20260503020536 | 2 | 254 | 0.0 | 0.0 | 0.00 | 0.13 | 0.13 | 75 | 1017.2 |
| 20260503020033 | 2 | 244 | 1.6 | 1.6 | 0.00 | 0.13 | 0.13 | 74 | 1017.2 |
| 20260503015529 | 2 | 268 | 0.0 | 1.6 | 0.00 | 0.13 | 0.13 | 75 | 1017.1 |
| 20260503015027 | 2 | 290 | 0.0 | 0.0 | 0.00 | 0.13 | 0.13 | 73 | 1017.2 |
| 20260503014522 | 2 | 289 | 0.0 | 1.6 | 0.00 | 0.13 | 0.13 | 75 | 1016.9 |
| 20260503014021 | 2 | 289 | 0.0 | 1.6 | 0.00 | 0.13 | 0.13 | 72 | 1017.0 |
| 20260503013518 | 2 | 279 | 0.0 | 0.0 | 0.00 | 0.13 | 0.13 | 73 | 1017.1 |
| 20260503013015 | 2 | 286 | 0.0 | 0.0 | 0.00 | 0.13 | 0.13 | 72 | 1017.0 |
| 20260503012513 | 2 | 355 | 0.0 | 0.0 | 0.00 | 0.13 | 0.13 | 69 | 1016.9 |
| 20260503012009 | 2 | 301 | 0.0 | 0.0 | 0.00 | 0.13 | 0.13 | 69 | 1017.0 |
| 20260503011506 | 3 | 349 | 0.0 | 0.0 | 0.00 | 0.13 | 0.13 | 69 | 1016.9 |
| 20260503011003 | 3 | 224 | 0.0 | 0.0 | 0.00 | 0.13 | 0.13 | 69 | 1016.7 |
| 20260503010459 | 3 | 189 | 1.6 | 1.6 | 0.00 | 0.13 | 0.13 | 66 | 1017.0 |
| 20260503005957 | 3 | 54 | 1.6 | 1.6 | 0.00 | 0.13 | 0.13 | 68 | 1016.9 |
| 20260503005453 | 3 | 234 | 1.6 | 1.6 | 0.00 | 0.13 | 0.13 | 69 | 1017.0 |
| 20260503004950 | 3 | 36 | 0.0 | 0.0 | 0.00 | 0.13 | 0.13 | 68 | 1016.8 |
| 20260503004447 | 3 | 36 | 0.0 | 0.0 | 0.00 | 0.13 | 0.13 | 67 | 1016.7 |
| 20260503003945 | 3 | 307 | 0.0 | 0.0 | 0.00 | 0.13 | 0.13 | 67 | 1016.8 |
| 20260503003441 | 3 | 15 | 0.0 | 0.0 | 0.00 | 0.13 | 0.13 | 65 | 1016.7 |
| 20260503002938 | 3 | 293 | 0.0 | 1.6 | 0.00 | 0.13 | 0.13 | 65 | 1016.8 |
| 20260503002435 | 3 | 283 | 0.0 | 0.0 | 0.00 | 0.13 | 0.13 | 65 | 1016.7 |
| 20260503001932 | 3 | 328 | 0.0 | 0.0 | 0.00 | 0.13 | 0.13 | 65 | 1016.7 |
| 20260503001428 | 3 | 260 | 0.0 | 1.6 | 0.00 | 0.13 | 0.13 | 63 | 1016.5 |
| 20260503000926 | 3 | 156 | 6.4 | 11.3 | 0.00 | 0.13 | 0.13 | 62 | 1016.8 |
| 20260503000423 | 3 | 39 | 0.0 | 0.0 | 0.00 | 0.13 | 0.13 | 63 | 1016.4 |
| 20260502235920 | 3 | 348 | 0.0 | 0.0 | 0.00 | 0.13 | 0.13 | 62 | 1016.6 |
| 20260502235417 | 4 | 3 | 0.0 | 1.6 | 0.00 | 0.13 | 0.13 | 61 | 1016.5 |
| 20260502234914 | 4 | 306 | 0.0 | 1.6 | 0.00 | 0.13 | 0.13 | 60 | 1016.5 |
| 20260502234411 | 4 | 74 | 1.6 | 1.6 | 0.00 | 0.13 | 0.13 | 60 | 1016.5 |
| 20260502233908 | 4 | 272 | 0.0 | 0.0 | 0.00 | 0.13 | 0.13 | 60 | 1016.4 |
| 20260502233403 | 4 | 314 | 6.4 | 6.4 | 0.00 | 0.13 | 0.13 | 58 | 1016.5 |
| 20260502232901 | 4 | 242 | 4.8 | 6.4 | 0.00 | 0.13 | 0.13 | 57 | 1016.4 |
| 20260502232357 | 4 | 317 | 3.2 | 4.8 | 0.00 | 0.13 | 0.13 | 57 | 1016.6 |
| 20260502231854 | 5 | 267 | 1.6 | 1.6 | 0.00 | 0.13 | 0.13 | 58 | 1016.5 |
| 20260502231352 | 5 | 268 | 0.0 | 0.0 | 0.00 | 0.13 | 0.13 | 58 | 1016.4 |
| 20260502230849 | 5 | 245 | 1.6 | 1.6 | 0.00 | 0.13 | 0.13 | 59 | 1016.6 |
| 20260502230347 | 5 | 168 | 4.8 | 4.8 | 0.00 | 0.13 | 0.13 | 58 | 1016.7 |
| 20260502225844 | 5 | 292 | 0.0 | 0.0 | 0.00 | 0.13 | 0.13 | 61 | 1016.5 |
| 20260502225340 | 5 | 329 | 0.0 | 0.0 | 0.00 | 0.13 | 0.13 | 57 | 1016.3 |
| 20260502224838 | 5 | 300 | 1.6 | 3.2 | 0.00 | 0.13 | 0.13 | 57 | 1016.4 |
| 20260502224334 | 5 | 282 | 3.2 | 3.2 | 0.00 | 0.13 | 0.13 | 57 | 1016.4 |
| 20260502223831 | 5 | 285 | 0.0 | 0.0 | 0.00 | 0.13 | 0.13 | 57 | 1016.4 |
| 20260502223329 | 5 | 36 | 0.0 | 0.0 | 0.00 | 0.13 | 0.13 | 56 | 1016.5 |
| 20260502222827 | 5 | 5 | 3.2 | 4.8 | 0.00 | 0.13 | 0.13 | 57 | 1016.4 |
| 20260502222324 | 5 | 250 | 1.6 | 3.2 | 0.00 | 0.13 | 0.13 | 58 | 1016.4 |
| 20260502221819 | 5 | 285 | 0.0 | 0.0 | 0.00 | 0.13 | 0.13 | 57 | 1016.2 |
| 20260502221316 | 5 | 0 | 3.2 | 4.8 | 0.00 | 0.13 | 0.13 | 56 | 1016.3 |
| 20260502220813 | 5 | 357 | 0.0 | 0.0 | 0.00 | 0.13 | 0.13 | 56 | 1016.2 |
| 20260502220309 | 5 | 196 | 3.2 | 4.8 | 0.00 | 0.13 | 0.13 | 60 | 1016.5 |
| 20260502215806 | 5 | 61 | 1.6 | 4.8 | 0.00 | 0.13 | 0.13 | 56 | 1016.5 |
| 20260502215304 | 5 | 183 | 1.6 | 1.6 | 0.00 | 0.13 | 0.13 | 58 | 1016.4 |
| 20260502214800 | 5 | 271 | 1.6 | 3.2 | 0.00 | 0.13 | 0.13 | 55 | 1016.2 |
| 20260502214256 | 5 | 306 | 0.0 | 0.0 | 0.00 | 0.13 | 0.13 | 57 | 1016.1 |
| 20260502213754 | 5 | 358 | 1.6 | 1.6 | 0.00 | 0.13 | 0.13 | 55 | 1016.4 |
| 20260502213251 | 5 | 74 | 1.6 | 1.6 | 0.00 | 0.13 | 0.13 | 54 | 1016.1 |
| 20260502212750 | 5 | 185 | 3.2 | 4.8 | 0.00 | 0.13 | 0.13 | 55 | 1016.2 |
| 20260502212248 | 5 | 166 | 1.6 | 3.2 | 0.00 | 0.13 | 0.13 | 55 | 1016.0 |
| 20260502211743 | 5 | 293 | 4.8 | 6.4 | 0.00 | 0.13 | 0.13 | 54 | 1016.1 |
| 20260502211240 | 5 | 252 | 1.6 | 1.6 | 0.00 | 0.13 | 0.13 | 52 | 1015.8 |
| 20260502210737 | 6 | 205 | 3.2 | 4.8 | 0.00 | 0.13 | 0.13 | 53 | 1016.1 |
| 20260502210235 | 6 | 295 | 1.6 | 1.6 | 0.00 | 0.13 | 0.13 | 53 | 1015.8 |
| 20260502205732 | 6 | 14 | 3.2 | 3.2 | 0.00 | 0.13 | 0.13 | 53 | 1015.8 |
| 20260502205228 | 6 | 353 | 3.2 | 3.2 | 0.00 | 0.13 | 0.13 | 58 | 1015.8 |
| 20260502204725 | 6 | 254 | 1.6 | 3.2 | 0.00 | 0.13 | 0.13 | 55 | 1016.0 |
| 20260502204223 | 6 | 279 | 3.2 | 4.8 | 0.00 | 0.13 | 0.13 | 58 | 1015.7 |